Weather in Razgrad

Bulgaria     43°31′40″N   26°31′45″E
temp.,
°C
wind,
m/s
gust,
m/s
humid.,
%
clouds,
%
prec.,
mm/h
press.,
hPa
HPBL,
m
28 february, sun
sun2823:00+4ne9149083 1.1 1025532
02:00+4ne5108291 3.4 1027782
05:00+3ne31274100 0.0 1028626
08:00+3nw137665 0.0 1029324
11:00+7nw466179 0.0 10291031
14:00+8nw565958 0.4 10281379
17:00+8nw456140 0.4 10271152
20:00+5nw117320 0.4 102822
1 march, mon
mon123:00+4e11680 0.0 102822
02:00+3s22690 0.0 102722
05:00+3sw248382 0.0 102693
08:00+3wnw368191 0.0 1026444
11:00+3nw3594100 1.0 1027325
14:00+3nnw4795100 2.1 1028466
17:00+4n61082100 0.8 1029959
20:00+2nne4108863 0.8 1032561
2 march, tue
tue223:00+1nne399426 0.0 1034450
02:00+1nne289637 0.0 1035424
05:00−1nw129732 0.0 103424
08:000wnw239645 0.0 1035188
11:00+4nw337493 0.0 1034646
14:00+5nw456996 0.0 1033926
17:00+6nw466567 0.0 1031862
20:00+3wnw227864 0.0 103126
3 march, wed
wed323:00+3w23780 0.0 103141
02:00+2w23810 0.0 103145
05:00+2w23870 0.0 103046
08:00+3w25840 0.0 1031192
11:00+8w33610 0.0 1031490
14:00+11wnw22480 0.0 1029914
17:00+11wnw11500 0.0 1028891
20:00+7n00640 0.0 102922
4 march, thu
thu423:00+6se23730 0.0 102933
02:00+4sse33810 0.0 102856
05:00+3sse33870 0.0 102641
08:00+4sse34850 0.0 102694
11:00+10s33580 0.0 1023350
14:00+14ssw23410 0.0 1020850
17:00+14sw22420 0.0 101871
20:00+9sse22640 0.0 101824